Chippewa, MI

1:11 AM EST on December 10, 2019 (GMT -0500)
Chippewa County International

Weather History for KCIU - October, 2019

Change the Weather History Date:

Sunday, October 20, 2019

  Actual Average Record
Temperature  
Mean Temperature 48 °F -  
Max Temperature 55 °F 50 °F 70 °F (2017)
Min Temperature 41 °F 32 °F 21 °F (1983)
Degree Days  
Heating Degree Days 18    
Moisture  
Dew Point 46 °F    
Average Humidity 94    
Maximum Humidity 100    
Minimum Humidity 80    
Precipitation  
Precipitation 0.09 in - - ()
Sea Level Pressure  
Sea Level Pressure 29.91 in    
Wind  
Wind Speed 4 mph ()    
Max Wind Speed 8 mph    
Max Gust Speed -    
Visibility 7.1 miles    
Events Fog , Rain    
Averages and records for this station are not official NWS values.
T = Trace of Precipitation, MM = Missing Value Source: Averaged Metar Reports

Daily Weather History Graph

Daily Weather History Graph

Search for Another Location

Airport or City:

Astronomy

Oct. 20, 2019 Rise Set
Actual Time 8:01 AM EDT 6:42 PM EDT
Civil Twilight 7:31 AM EDT 7:13 PM EDT
Nautical Twilight 6:56 AM EDT 7:48 PM EDT
Astronomical Twilight 6:21 AM EDT 8:23 PM EDT
Moon 11:37 PM EDT (10/20) 2:42 PM EDT (10/20)
Length of Visible Light 11h 42m
Length of Day
10h 41m
Waning Gibbous, 59% of the Moon is Illuminated
Oct 20
Waning Gibbous
Oct 21
Last Quarter
Oct 27
New
Nov 4
First Quarter
Nov 12
Full

Hourly Weather History & Observations

Time (EDT) Temp. Windchill Dew Point Humidity Pressure Visibility Wind Dir Wind Speed Gust Speed Precip Events Conditions
12:56 AM 46.9 °F - 45.0 °F 93% 29.78 in 10.0 mi SSE 6.9 mph - N/A   Clear
1:56 AM 46.9 °F - 45.0 °F 93% 29.78 in 10.0 mi SE 5.8 mph - N/A   Mostly Cloudy
2:56 AM 46.9 °F - 44.1 °F 90% 29.78 in 10.0 mi SE 4.6 mph - N/A   Overcast
3:56 AM 46.9 °F - 45.0 °F 93% 29.78 in 10.0 mi SE 5.8 mph - 0.00 in Rain Light Rain
4:56 AM 46.9 °F - 45.0 °F 93% 29.77 in 10.0 mi SSE 3.5 mph - 0.01 in Rain Light Rain
5:56 AM 46.9 °F - 46.0 °F 97% 29.78 in 10.0 mi SSE 3.5 mph - 0.01 in   Overcast
6:56 AM 46.9 °F - 46.0 °F 97% 29.79 in 10.0 mi Calm Calm - 0.00 in Rain Light Rain
7:54 AM 46.4 °F - 46.4 °F 100% 29.79 in 10.0 mi Calm Calm - 0.00 in Rain Light Rain
7:56 AM 46.9 °F - 46.0 °F 97% 29.80 in 10.0 mi Calm Calm - 0.00 in Rain Light Rain
8:24 AM 48.2 °F - 46.4 °F 93% 29.80 in 2.5 mi Calm Calm - 0.02 in Rain Light Rain
8:45 AM 46.4 °F 45.2 °F 46.4 °F 100% 29.81 in 1.5 mi South 3.5 mph - 0.03 in Rain Light Rain
8:56 AM 46.9 °F - 46.9 °F 100% 29.82 in 1.5 mi SSE 4.6 mph - 0.05 in Rain Light Rain
9:18 AM 48.2 °F - 46.4 °F 93% 29.82 in 2.0 mi SSE 3.5 mph - 0.01 in Rain Light Rain
9:30 AM 48.2 °F - 46.4 °F 93% 29.83 in 3.0 mi SSE 3.5 mph - 0.01 in Rain Light Rain
9:40 AM 48.2 °F - 48.2 °F 100% 29.83 in 4.0 mi Calm Calm - 0.01 in Rain Light Rain
9:56 AM 48.0 °F - 48.0 °F 100% 29.83 in 6.0 mi SSE 3.5 mph - 0.01 in   Overcast
10:56 AM 51.1 °F - 50.0 °F 96% 29.85 in 8.0 mi Calm Calm - N/A   Overcast
11:56 AM 50.0 °F - 48.9 °F 96% 29.87 in 9.0 mi NW 5.8 mph - N/A   Overcast
12:56 PM 51.1 °F - 48.9 °F 92% 29.89 in 10.0 mi Variable 4.6 mph - N/A   Overcast
1:56 PM 52.0 °F - 48.9 °F 89% 29.91 in 10.0 mi WNW 5.8 mph - N/A   Overcast
2:33 PM 51.8 °F - 50.0 °F 94% 29.90 in 10.0 mi NW 4.6 mph - N/A   Overcast
2:56 PM 53.1 °F - 50.0 °F 89% 29.91 in 10.0 mi NNW 6.9 mph - N/A   Overcast
3:24 PM 53.6 °F - 48.2 °F 82% 29.90 in 10.0 mi NNW 8.1 mph - N/A   Overcast
3:53 PM 53.6 °F - 50.0 °F 88% 29.91 in 10.0 mi NNE 8.1 mph - N/A   Overcast
3:56 PM 53.1 °F - 50.0 °F 89% 29.92 in 10.0 mi NE 6.9 mph - N/A   Overcast
4:05 PM 53.6 °F - 50.0 °F 88% 29.91 in 10.0 mi NE 4.6 mph - N/A   Overcast
4:26 PM 53.6 °F - 50.0 °F 88% 29.92 in 10.0 mi Variable 4.6 mph - N/A   Mostly Cloudy
4:34 PM 53.6 °F - 48.2 °F 82% 29.92 in 10.0 mi NNE 4.6 mph - N/A   Scattered Clouds
4:56 PM 54.0 °F - 48.9 °F 83% 29.94 in 10.0 mi North 3.5 mph - N/A   Scattered Clouds
5:56 PM 54.0 °F - 48.0 °F 80% 29.95 in 10.0 mi ENE 4.6 mph - N/A   Clear
6:56 PM 48.9 °F - 48.0 °F 97% 29.96 in 10.0 mi East 3.5 mph - N/A   Clear
7:56 PM 46.9 °F - 46.0 °F 97% 30.00 in 10.0 mi Calm Calm - N/A   Clear
8:16 PM 46.4 °F 43.5 °F 44.6 °F 93% 30.00 in 1.8 mi SW 5.8 mph - N/A   Clear
8:23 PM 46.4 °F 44.3 °F 46.4 °F 100% 30.00 in 3.0 mi SW 4.6 mph - N/A   Clear
8:56 PM 44.1 °F - 44.1 °F 100% 30.01 in 6.0 mi Calm Calm - N/A   Clear
9:28 PM 44.6 °F - 44.6 °F 100% 30.00 in 8.0 mi Calm Calm - N/A   Mostly Cloudy
9:56 PM 42.1 °F - 41.0 °F 96% 30.02 in 10.0 mi Calm Calm - 0.01 in   Mostly Cloudy
10:07 PM 42.8 °F 41.1 °F 42.8 °F 100% 30.00 in 9.0 mi ENE 3.5 mph - N/A   Scattered Clouds
10:31 PM 42.8 °F 40.1 °F 42.8 °F 100% 30.02 in 2.5 mi SSE 4.6 mph - N/A   Clear
10:34 PM 42.8 °F 40.1 °F 42.8 °F 100% 30.02 in 1.0 mi SSE 4.6 mph - N/A   Clear
10:38 PM 42.8 °F 39.3 °F 42.8 °F 100% 30.02 in 0.5 mi SSE 5.8 mph - N/A Fog Fog
10:46 PM 41.0 °F 39.0 °F 39.2 °F 93% 30.02 in 0.2 mi SSE 3.5 mph - N/A Fog Fog
10:49 PM 41.0 °F 39.0 °F 41.0 °F 100% 30.02 in 0.8 mi South 3.5 mph - N/A   Clear
10:51 PM 41.0 °F 39.0 °F 41.0 °F 100% 30.02 in 2.0 mi South 3.5 mph - N/A   Clear
10:56 PM 41.0 °F 39.0 °F 41.0 °F 100% 30.04 in 3.0 mi South 3.5 mph - N/A   Clear
11:56 PM 41.0 °F 39.0 °F 41.0 °F 100% 30.04 in 10.0 mi ESE 3.5 mph - N/A   Clear